Vorticity
4 3 4 7 4 7 9 10 8 8 3 8 10 14 49 -4 -19 4 12 8 7 4
5 7 8 4 5 6 11 4 2 5 8 7 23 -7 13 -2 -2 6 10 9 7 12
11 8 6 7 8 4 3 3 -0 7 10 2 17 -5 9 9 11 9 6 8 11 11
8 3 3 5 5 7 5 9 9 10 4 10 8 -1 2 6 9 12 11 4 21 5
-0 3 12 9 8 6 10 10 6 5 15 10 -4 5 16 6 0 1 12 18 -10 16
12 8 6 6 12 12 6 6 0 1 -0 6 10 13 11 9 5 5 10 13 12 1
7 6 9 4 9 12 11 9 3 4 6 6 7 12 13 7 5 9 11 16 6 4
2 4 3 16 0 2 6 7 11 11 7 7 3 13 13 1 13 6 12 12 5 13
2 6 8 7 6 2 7 9 6 7 12 10 10 7 9 15 5 15 18 10 12 12
7 7 4 4 5 3 7 9 9 9 11 6 7 7 9 9 10 21 10 4 5 4
4 -1 7 3 0 8 1 2 19 21 3 12 9 12 10 16 28 22 14 12 17 12
1 -5 -3 18 10 9 7 18 26 4 19 8 8 7 13 24 15 2 11 18 -6 0
7 -3 -11 20 18 4 -6 -2 3 3 12 8 7 14 24 11 7 2 11 0 0 10
9 22 -8 -2 20 3 -1 30 7 6 13 9 7 25 13 2 -4 9 0 2 7 10
Height
5785 5784 5783 5781 5779 5777 5773 5770 5765 5762 5760 5755 5748 5748 5735 5732 5727 5725 5718 5712 5704 5698
5775 5773 5771 5769 5766 5764 5760 5757 5755 5751 5748 5743 5735 5704 5731 5720 5720 5713 5705 5698 5691 5684
5766 5764 5761 5758 5755 5753 5749 5746 5743 5739 5736 5733 5731 5730 5721 5716 5709 5700 5693 5685 5678 5671
5754 5750 5748 5746 5743 5740 5736 5734 5730 5728 5724 5721 5718 5713 5707 5700 5693 5687 5680 5672 5665 5658
5741 5735 5736 5734 5730 5727 5725 5722 5719 5715 5710 5708 5703 5698 5692 5685 5679 5672 5666 5659 5651 5643
5728 5725 5723 5722 5720 5717 5714 5710 5707 5703 5700 5694 5688 5682 5677 5672 5665 5658 5652 5644 5636 5629
5720 5718 5716 5712 5709 5708 5705 5700 5695 5690 5685 5680 5675 5669 5662 5656 5649 5642 5637 5629 5622 5614
5709 5708 5705 5702 5698 5693 5688 5684 5679 5675 5669 5663 5657 5651 5646 5639 5633 5627 5622 5612 5605 5599
5694 5691 5687 5684 5679 5675 5671 5666 5661 5655 5649 5645 5639 5634 5629 5622 5617 5611 5604 5598 5592 5586
5678 5674 5670 5666 5663 5659 5654 5649 5644 5639 5635 5629 5623 5619 5613 5606 5600 5595 5588 5584 5577 5570
5662 5658 5653 5649 5645 5641 5635 5631 5626 5621 5616 5610 5607 5602 5595 5590 5585 5580 5573 5568 5564 5559
5647 5642 5637 5632 5627 5623 5619 5615 5609 5603 5599 5595 5589 5582 5577 5573 5568 5564 5559 5555 5550 5544
5628 5623 5618 5614 5609 5604 5600 5596 5592 5587 5581 5577 5573 5566 5562 5557 5554 5548 5543 5538 5535 5529
5612 5606 5602 5597 5592 5585 5581 5576 5571 5566 5562 5560 5556 5550 5547 5543 5539 5534 5528 5523 5518 5515